{"data":{"norad_id":26900,"intl_designator":"2001-039A","name":"INTELSAT 902 (IS-902)","alt_names":[],"object_type":"PAYLOAD","status":"ACTIVE","operator":null,"country":"ITSO","launch_date":"2001-08-30","launch_site_code":"FRGUI","launch_vehicle":null,"mission":null,"orbit_class":"UNKNOWN","rcs_meters":14.1589,"size_class":null,"mass_kg":null,"dimensions":null,"purposes":["comms"],"wikipedia_slug":null,"has_3d_model":false,"image_url":null,"decayed_at":null,"tle_current":{"epoch":"2026-09-19T21:51:53.163936Z","epoch_age_seconds":62152,"freshness":"FRESH","line1":"1 26900U 01039A   26262.91103199 -.00000285  00000+0  00000+0 0  9995","line2":"2 26900   6.3499  70.5824 0004035 109.1468  96.9469  1.00272401 91647","mean_motion":1.00272401,"eccentricity":0.0004035,"inclination_deg":6.3499,"raan_deg":70.5824,"arg_perigee_deg":109.1468,"mean_anomaly_deg":96.9469,"bstar":0,"rev_number":9164,"period_min":1436.0880817046,"perigee_km":35769.408875246,"apogee_km":35803.435674581,"semimajor_km":42164.559274913,"source":"CELESTRAK","updated_at":"2026-09-20T09:00:35.513346Z"}}}